sat.trackr.live / text

‹ back to catalog

KUIPER-00025

NORAD 63739 · 2025-088R

PAYLOAD ACTIVE UNKNOWN

§ Identity

Operator
Country
US
Launch date
2025-04-28
Launch site
AFETR
Launch vehicle
Mass (kg)
RCS (m²)

External: N2YO · Heavens-Above · Gunter

§ Orbital elements

Epoch: 2026-09-21T09:21:58.854528Z

Period
97.30 min
Inclination
51.9050°
Eccentricity
0.0000538
Mean motion
14.79925954 rev/d
Perigee alt
629.2 km
Apogee alt
629.9 km
Semi-major
7,007.7 km
B*
1.5644e-4
RAAN
315.2608°
Arg perigee
94.2793°
Mean anomaly
265.8231°
Rev number
7,679

§ Raw data

KUIPER-000251 63739U 25088R   26264.39026452  .00000971  00000+0  15644-3 0  99912 63739  51.9050 315.2608 0000538  94.2793 265.8231 14.79925954 76796

JSON: /api/v1/satellites/63739 · /tle

For live sub-satellite position, see the globe view (requires WebGL).

§ Visibility from observer

Set your observer location to see the next 7 days of passes ≥ 10°. The values pass through the URL so the page stays shareable.

No JS? Fill the form by hand. The geolocation button needs JavaScript.